This demonstration page uses our WeatherBlox Daily Observations layout. Learn more.

Hourly Observations for January 24, 2021

Temp ( °F °C ) Dew Point ( °F °C ) Humidity (%) Winds ( mph kmh ) Pressure ( in mb ) Visibility ( mi km ) Precip ( " mm )
12:15 am 00:15 Mostly Cloudy 27 -3 24 -4.3 91 91 NW 6 9 30.05 1018 10 16.0934 0 0
12:35 am 00:35 Mostly Cloudy 26 -3.1 24 -4.5 90 90 WNW 3 6 30.06 1018 10 16.0934 0 0
12:55 am 00:55 Partly Cloudy 26 -3.2 24 -4.5 91 91 NW 5 7 30.07 1018 10 16.0934 0 0
1:15 am 01:15 Mostly Cloudy with Light Snow 27 -2.6 24 -4.2 89 89 NW 7 11 30.06 1018 5 8.0467 0 0
1:35 am 01:35 Cloudy with Light Snow 28 -2.3 25 -3.7 90 90 NNW 6 9 30.05 1017 3 4.82802 0 0
1:55 am 01:55 Cloudy with Light Snow 28 -2.3 26 -3.4 92 92 NNW 7 11 30.05 1017 3 4.82802 0 0
2:15 am 02:15 Cloudy with Light Snow 28 -2.3 26 -3.2 94 94 NNW 7 11 30.06 1018 3 4.82802 0 0
2:35 am 02:35 Cloudy with Light Snow 28 -2.2 26 -3.1 94 94 NW 6 9 30.07 1018 7 11.26538 0 0
2:55 am 02:55 Cloudy 28 -2.1 27 -3 94 94 NW 8 13 30.07 1018 7 11.26538 0 0
3:15 am 03:15 Cloudy 28 -2.3 26 -3.2 94 94 NNW 8 13 30.07 1018 10 16.0934 0 0
3:35 am 03:35 Mostly Cloudy 28 -2.3 26 -3.3 93 93 NW 8 13 30.09 1019 10 16.0934 0 0
3:55 am 03:55 Cloudy 28 -2.3 26 -3.3 93 93 NNW 8 13 30.1 1019 10 16.0934 0 0
4:15 am 04:15 Cloudy 28 -2.2 26 -3.5 91 91 N 9 15 30.1 1019 10 16.0934 0 0
4:35 am 04:35 Cloudy 28 -2.3 25 -3.7 90 90 N 10 17 30.1 1019 10 16.0934 0 0
4:55 am 04:55 Cloudy 28 -2.3 25 -3.8 90 90 N 13 20 30.12 1020 10 16.0934 0 0
5:15 am 05:15 Cloudy 28 -2.3 24 -4.2 87 87 N 13 20 30.13 1020 10 16.0934 0 0
5:35 am 05:35 Cloudy 28 -2.5 24 -4.2 88 88 N 15 24 30.12 1020 10 16.0934 0 0
5:55 am 05:55 Cloudy 28 -2.5 25 -4.1 89 89 NNE 13 20 30.13 1020 10 16.0934 0 0
6:15 am 06:15 Cloudy 27 -2.6 25 -4.1 90 90 N 14 22 30.14 1021 10 16.0934 0 0
6:35 am 06:35 Cloudy 27 -2.9 24 -4.5 89 89 N 14 22 30.14 1021 10 16.0934 0 0
6:55 am 06:55 Cloudy 26 -3.2 23 -4.8 89 89 N 17 28 30.15 1021 10 16.0934 0 0
7:15 am 07:15 Cloudy 26 -3.3 23 -4.8 90 90 N 15 24 30.16 1021 10 16.0934 0 0
7:35 am 07:35 Cloudy 26 -3.3 24 -4.6 91 91 NNE 12 19 30.17 1022 10 16.0934 0 0
7:55 am 07:55 Cloudy 26 -3.3 24 -4.6 91 91 NNE 12 19 30.17 1022 10 16.0934 0 0
8:15 am 08:15 Cloudy 26 -3.2 23 -4.8 89 89 NNE 14 22 30.17 1022 10 16.0934 0 0
8:35 am 08:35 Cloudy 26 -3.2 23 -4.8 89 89 NNE 10 17 30.18 1022 10 16.0934 0 0
8:55 am 08:55 Cloudy 26 -3.2 23 -5 88 88 NE 13 20 30.19 1022 10 16.0934 0 0
9:15 am 09:15 Cloudy 26 -3.2 23 -5.1 87 87 NNE 14 22 30.19 1022 10 16.0934 0 0
9:35 am 09:35 Cloudy 27 -3 23 -5 86 86 NE 14 22 30.18 1022 10 16.0934 0 0
9:55 am 09:55 Cloudy 27 -2.8 24 -4.6 88 88 NE 10 17 30.18 1022 10 16.0934 0 0
10:15 am 10:15 Cloudy 27 -2.6 23 -4.8 85 85 NE 13 20 30.18 1022 10 16.0934 0 0
10:35 am 10:35 Cloudy 27 -2.6 23 -4.8 85 85 NNE 14 22 30.18 1022 10 16.0934 0 0
10:55 am 10:55 Cloudy 28 -2.3 24 -4.5 85 85 ENE 14 22 30.18 1022 10 16.0934 0 0
11:15 am 11:15 Cloudy 28 -2.2 24 -4.6 84 84 NNE 10 17 30.17 1022 10 16.0934 0 0
11:35 am 11:35 Cloudy 28 -2.2 24 -4.5 84 84 NNE 8 13 30.18 1022 10 16.0934 0 0
11:55 am 11:55 Cloudy 30 -1.3 25 -4.1 81 81 NE 12 19 30.15 1021 10 16.0934 0 0
12:15 pm 12:15 Cloudy 29 -1.8 24 -4.4 83 83 ENE 8 13 30.15 1021 10 16.0934 0 0
12:35 pm 12:35 Cloudy 29 -1.6 24 -4.6 80 80 NE 9 15 30.15 1021 10 16.0934 0 0
12:55 pm 12:55 Cloudy 29 -1.8 23 -4.9 80 80 E 7 11 30.13 1020 10 16.0934 0 0
1:15 pm 13:15 Cloudy 28 -2 23 -4.9 81 81 Calm 30.12 1020 10 16.0934 0 0
1:35 pm 13:35 Cloudy 29 -1.5 23 -4.8 78 78 NE 7 11 30.11 1020 10 16.0934 0 0
1:55 pm 13:55 Cloudy 29 -1.5 24 -4.6 80 80 NE 8 13 30.1 1019 10 16.0934 0 0
2:15 pm 14:15 Cloudy 29 -1.7 23 -5 78 78 ENE 5 7 30.09 1019 10 16.0934 0 0
2:35 pm 14:35 Cloudy 29 -1.6 23 -5 78 78 E 8 13 30.09 1019 10 16.0934 0 0
2:55 pm 14:55 Cloudy 29 -1.6 23 -5 78 78 ENE 10 17 30.07 1018 10 16.0934 0 0
3:15 pm 15:15 Cloudy 29 -1.8 23 -5 79 79 E 9 15 30.08 1019 10 16.0934 0 0
3:35 pm 15:35 Cloudy 28 -2.1 23 -5.1 80 80 E 8 13 30.07 1018 10 16.0934 0 0
3:55 pm 15:55 Cloudy 28 -2.3 23 -5 82 82 ENE 10 17 30.08 1019 10 16.0934 0 0
4:15 pm 16:15 Cloudy 28 -2.3 23 -5 82 82 E 12 19 30.06 1018 10 16.0934 0 0
4:35 pm 16:35 Cloudy 28 -2.5 23 -5.1 83 83 ESE 10 17 30.07 1018 10 16.0934 0 0
4:55 pm 16:55 Cloudy 27 -2.8 23 -5.1 84 84 E 9 15 30.06 1018 10 16.0934 0 0
5:15 pm 17:15 Cloudy 27 -2.9 23 -5 86 86 E 9 15 30.05 1018 10 16.0934 0 0
5:35 pm 17:35 Cloudy 27 -3 23 -5 86 86 E 12 19 30.05 1018 10 16.0934 0 0
5:55 pm 17:55 Cloudy 26 -3.1 23 -5 87 87 E 12 19 30.03 1017 10 16.0934 0 0
6:15 pm 18:15 Cloudy 26 -3.2 23 -5 88 88 ESE 12 19 30.03 1017 10 16.0934 0 0
6:35 pm 18:35 Cloudy 26 -3.3 23 -4.8 90 90 ESE 10 17 30.03 1017 10 16.0934 0 0
6:55 pm 18:55 Cloudy 26 -3.3 24 -4.7 90 90 E 12 19 30.04 1017 10 16.0934 0 0
7:15 pm 19:15 Cloudy 26 -3.3 24 -4.6 91 91 E 12 19 30.04 1017 10 16.0934 0 0
7:35 pm 19:35 Cloudy 26 -3.5 24 -4.6 92 92 E 9 15 30.04 1017 10 16.0934 0 0
7:55 pm 19:55 Cloudy 26 -3.2 24 -4.5 91 91 E 10 17 30.04 1017 10 16.0934 0 0
8:15 pm 20:15 Cloudy 26 -3.5 24 -4.5 93 93 E 10 17 30.03 1017 10 16.0934 0 0
8:35 pm 20:35 Cloudy 26 -3.5 24 -4.5 93 93 E 10 17 30.04 1017 10 16.0934 0 0
8:55 pm 20:55 Cloudy 26 -3.5 24 -4.5 93 93 SE 12 19 30.07 1018 7 11.26538 0 0
9:15 pm 21:15 Cloudy 26 -3.5 24 -4.5 93 93 ESE 8 13 30.06 1018 7 11.26538 0 0
9:35 pm 21:35 Cloudy with Mist and Fog 26 -3.6 24 -4.5 94 94 E 10 17 30.06 1018 5 8.0467 0 0
9:55 pm 21:55 Cloudy with Mist and Fog 25 -3.7 24 -4.5 94 94 E 9 15 30.05 1018 5 8.0467 0 0
10:15 pm 22:15 Cloudy with Mist and Fog 25 -3.7 24 -4.5 94 94 ESE 6 9 30.07 1018 4 6.43736 0 0
10:35 pm 22:35 Cloudy with Mist and Fog 25 -3.8 24 -4.5 95 95 E 6 9 30.05 1018 3 4.82802 0 0
10:55 pm 22:55 Cloudy with Mist and Fog 25 -3.8 24 -4.5 95 95 ENE 5 7 30.03 1017 3 4.82802 0 0
11:15 pm 23:15 Cloudy with Light Snow 25 -3.8 24 -4.5 95 95 ENE 8 13 30 1016 3 4.82802 0 0
11:35 pm 23:35 Cloudy with Mist and Fog 25 -3.8 24 -4.5 95 95 E 8 13 30.02 1017 4 6.43736 0 0
11:55 pm 23:55 Cloudy with Mist and Fog 25 -3.8 24 -4.5 95 95 E 6 9 30.01 1016 4 6.43736 0 0

Powered by AerisWeather